Flag for Brazil Weather past 2 weeks in Belo Horizonte, Minas Gerais, Brazil

Now
57 °F

Clear.


Feels Like: 55 °F
Forecast: 62 / 72 °F
Wind: 8 mph from Southeast

Location: Belo Horizonte Airport

Current Time: Jul 6, 2015 at 4:16:58 AM

Latest Report: Jul 6, 2015 at 4:00 AM


Visibility: 10 mi

Pressure: 30.12 "Hg (27.19 "Hg at 860m altitude)

Humidity: 94%

Dew point: 55 °F

Location of Belo HorizonteLocation

Historic Weather in Belo Horizonte — Graph

°F

Belo Horizonte temperature yesterday

Maximum temperature yesterday: 77 °F (at 1:00 PM)
Minimum temperature yesterday: 59 °F (at 11:00 PM)
Average temperature yesterday: 67 °F

Past Weeks' High & Low Weather Summary

 TemperatureHumidityPressure
High81 °F (Jul 4, 1:00 PM)100% (Jul 1, 4:00 AM)30.48 "Hg (Jul 1, 4:00 AM)
Low54 °F (Jun 27, 1:00 AM)34% (Jun 23, 2:00 PM)30.04 "Hg (Jul 4, 2:00 PM)
Average64 °F70%30.25 "Hg
* Reported Jun 21 3:00 AM — Jul 6 3:00 AM, Belo Horizonte, Weather by CustomWeather, © 2015

Note: Actual official high and low records may vary slightly from our data, if they occured in-between our weather recording intervals... More about our weather records

Advertising

Belo Horizonte weather history for previous 24 hours

 ConditionsComfort  
Time TempWeatherWind HumidityBarometerVisibility
3:00 AM
Mon, Jul 6
57 °FClear.7 mph94%30.15 "Hg10 mi
2:00 AM57 °FClear.8 mph94%30.15 "Hg10 mi
1:00 AM57 °FClear.9 mph94%30.18 "Hg10 mi
12:00 AM59 °FClear.13 mph88%30.18 "Hg10 mi
11:00 PM
Sun, Jul 5
59 °FClear.10 mph88%30.18 "Hg10 mi
10:00 PM61 °FClear.12 mph88%30.15 "Hg10 mi
9:00 PM63 °FClear.13 mph83%30.15 "Hg10 mi
8:00 PM64 °FClear.15 mph83%30.15 "Hg10 mi
7:00 PM64 °FClear.14 mph83%30.12 "Hg10 mi
6:00 PM66 °FPassing clouds.14 mph83%30.12 "HgN/A
5:00 PM70 °FScattered clouds.16 mph73%30.09 "HgN/A
4:00 PM75 °FScattered clouds.7 mph61%30.07 "HgN/A
3:00 PM77 °FPassing clouds.9 mph57%30.07 "HgN/A
2:00 PM77 °FPassing clouds.8 mph57%30.09 "HgN/A
1:00 PM77 °FScattered clouds.9 mph57%30.09 "HgN/A
12:00 PM75 °FPassing clouds.7 mph61%30.12 "HgN/A
11:00 AM75 °FSunny.8 mph57%30.15 "Hg10 mi
10:00 AM73 °FSunny.9 mph65%30.15 "Hg10 mi
9:00 AM68 °FSunny.3 mph73%30.15 "Hg10 mi
8:00 AM64 °FSunny.5 mph78%30.12 "Hg10 mi
7:00 AM63 °FSunny.2 mph77%30.12 "Hg10 mi
6:00 AM61 °FClear.3 mph83%30.12 "Hg10 mi
5:00 AM61 °FClear.2 mph83%30.09 "Hg10 mi
4:00 AM61 °FClear.2 mph83%30.09 "Hg10 mi
Weather by CustomWeather, © 2015

See weather overviewHow to use our weather pages